{"data":{"norad_id":65539,"epoch":"2026-09-20T10:25:50.462976Z","epoch_age_seconds":117516,"freshness":"FRESH","line1":"1 65539U 25200V   26263.43461184  .00019355  00000+0  59996-3 0  9990","line2":"2 65539  97.2839 329.8603 0000898  96.9023 263.2322 15.33464629 58638","mean_motion":15.33464629,"eccentricity":8.98e-5,"inclination_deg":97.2839,"raan_deg":329.8603,"arg_perigee_deg":96.9023,"mean_anomaly_deg":263.2322,"bstar":0.00059996,"rev_number":5863,"period_min":93.905002617442,"perigee_km":464.87021577207,"apogee_km":466.0993302425,"semimajor_km":6843.6217730073,"source":"CELESTRAK","updated_at":"2026-09-21T09:00:35.651697Z"}}